Regional Weather Roundup
Issued by NWS Pendleton, OR

Current Version | Previous Version | Text Only | Print | Product List | Glossary On
Versions: 1 2 3 4 5 6 7 8 9 10 11 12 13 14 15 16 17 18 19 20 21 22 23 24 25 26 27 28 29 30 31 32 33 34 35 36 37 38 39 40 41 42 43 44 45 46 47 48 49 50
000
ASUS46 KPDT 262025
RWRPDT
PENDLETON REGIONAL WEATHER ROUNDUP
NATIONAL WEATHER SERVICE PENDLETON OREGON
100 PM PDT TUE SEP 26 2017

NOTE: FAIR INDICATES FEW OR NO CLOUDS BELOW 12,000 FEET WITH NO
SIGNIFICANT WEATHER AND/OR OBSTRUCTIONS TO VISIBILITY.

# INDICATES UNOFFICIAL STATION AND DATA

WAZ520-262110-
EAST SLOPES OF WASHINGTON CASCADES

CITY            SKY/WX      TMP DP  RH  WIND    PRES   REMARKS
#BULLFROG       N/A         70  47  44  E1      N/A
#CLE ELUM HS    N/A         69  45  42  SE5     30.10F
#CLE ELUM LAKE  N/A         69  49  49  W1      30.12F
#EASTON DOT     N/A         66  46  48  N3      N/A
#ELK HTS DOT    N/A         69  68  97  NE3     N/A
#GLENWOOD       N/A         71  55  57  CALM    30.14F
#NELSON 3SW     N/A         64  49  58  CALM    30.34F
#NILE           N/A         70  48  46  E1      29.42F
#TROUT LAKE 1NE N/A         69  53  57  CALM    30.14F
#TROUT LAKE 1E  N/A         70  52  53  E1      30.19F
$$

WAZ521-262110-
SIMCOE HIGHLANDS

CITY            SKY/WX      TMP DP  RH  WIND    PRES   REMARKS
#BICKLETON HS   N/A         66  51  58  CALM    30.14F
#CENTERVILLE 1SWN/A         67  50  54  SE6     30.09F
#GOLDENDALE 1NE N/A         72  38  29  E6      N/A
#GOLDENDALE 4W  N/A         70  15  12  S3      30.18F
#GOODNOE HILLS  N/A         75  53  46  SW8     N/A
#PITT 4SE       N/A         67  51  56  CALM    30.16F
$$

WAZ026-262110-
KITTITAS VALLEY

CITY            SKY/WX      TMP DP  RH  WIND    PRES   REMARKS
ELLENSBURG AP   SUNNY       72  46  39  VRB5    30.17F
#ELLENSBURG CWU N/A         72  50  46  SE2     30.09F
#ELLENSBURG 3NE N/A         67  51  56  CALM    28.24F
#ELLENSBURG 1E  N/A         69  50  51  CALM    30.19F
#KITTITAS 3S    N/A         70  52  53  CALM    30.14F
#MANASTASH RDG  N/A         69  69  100 N3      N/A
#ROCKY CYN DOT  N/A         69  46  44  E8      N/A
#RYEGRASS DOT   N/A         67  41  39  NE5     N/A
$$

WAZ027-262110-
YAKIMA VALLEY

CITY            SKY/WX      TMP DP  RH  WIND    PRES   REMARKS
SUNNYSIDE AP    SUNNY       70  49  47  CALM    30.16
YAKIMA AIRPORT  SUNNY       75  48  38  NW3     30.16F
YAKIMA-VAGABOND SUNNY       72  45  38  W7      30.15F
#DONALD 2NE     N/A         75  15  10  SE3     30.15F
#GRANDVIEW      N/A         70  49  47  CALM    30.15F
#MABTON         N/A         70  53  55  CALM    30.15F
#MOXEE 2E       N/A         72  N/A N/A NE1     30.03F
#NACHES 2SW     N/A         71  53  53  CALM    30.20S
#OUTLOOK DOT    N/A         72  49  44  CALM    30.13F
#PARKER DOT     N/A         74  45  35  N5      30.15F
#TERRACE HTS    N/A         73  53  49  N1      30.10F
#TOPPENISH      N/A         70  51  51  CALM    30.06F
#I82 S UMTANUM RN/A         69  45  42  SW7     N/A
#UNION GAP DOT  N/A         72  45  38  E1      30.19F
#W YAKIMA       N/A         70  51  51  SW2     30.14F
#WHITE SWAN 5E  N/A         72  52  49  CALM    30.14F
#WILEY CITY 3W  N/A         73  44  35  CALM    30.14F
#ZILLAH DOT     N/A         73  47  40  SE2     N/A
$$

WAZ028-262110-
LOWER COLUMBIA BASIN...WASHINGTON

CITY            SKY/WX      TMP DP  RH  WIND    PRES   REMARKS
HANFORD         MOSUNNY     74  46  37  SW2     30.16F
PASCO           SUNNY       76  51  42  VRB5    30.15F
PROSSER AWOS    N/A         72  52  49  W3      30.18F
RICHLAND AWOS   SUNNY       76  49  39  CALM    30.14F
#BENTON CITY    N/A         73  52  48  NE3     30.05F
#CONNELL 5N     N/A         72  51  48  CALM    30.14F
#CONNELL 5NW    N/A         71  51  49  W1      30.09F
#ELTOPIA 6NW    N/A         74  53  48  CALM    29.12F
#KAHLOTUS       N/A         71  49  46  CALM    30.12F
#KENNEWICK 3S   N/A         72  54  53  CALM    30.14F
#PATERSON       N/A         71  52  51  SE1     30.11F
#PROSSER DOT    N/A         73  49  43  CALM    30.16F
#SAGEMOOR 2W    N/A         71  52  51  CALM    30.00F
#TOUCHET 2S     N/A         74  54  50  W1      30.10F
#WEST PASCO     N/A         79  55  44  CALM    30.15F
$$

WAZ029-262110-
FOOTHILLS OF THE BLUES...WASHINGTON

CITY            SKY/WX      TMP DP  RH  WIND    PRES   REMARKS
WALLA WALLA AP  SUNNY       72  50  46  N6      30.16F
#CLYDE 6NW      N/A         72  51  48  CALM    30.11F
#DAYTON SCHOOL  N/A         71  45  39  CALM    30.16S
#LOWDEN 2SE     N/A         73  54  51  W2      30.10F
#PLEASANT VIEW 1N/A         72  50  46  E1      30.15F
#PRESCOTT       N/A         77  51  40  CALM    30.12F
#WHITMAN COLLEGEN/A         72  52  49  CALM    30.16F
#WAITSBURG 6SSE N/A         72  47  41  NW3     30.13F
#WALLA WALLA 5E N/A         72  52  49  NW7     N/A
#WHITMAN MISSIONN/A         73  54  51  CALM    30.14F
$$

WAZ030-262110-
BLUE MOUNTAINS...WASHINGTON

CITY            SKY/WX      TMP DP  RH  WIND    PRES   REMARKS
#DIXIE 5SE      N/A         64  49  58  NE7     30.12F
$$

ORZ009-041-WAZ024-262110-
COLUMBIA RIVER GORGE

CITY            SKY/WX      TMP DP  RH  WIND    PRES   REMARKS
THE DALLES AP   SUNNY       74  53  48  VRB3    30.13F
#ARLINGTON AIRPON/A         71  52  51  E3      30.13F
#CELILO DOT     N/A         69  50  51  SW2     N/A
#LYLE           N/A         72  54  53  S5      30.13F
#MARYHILL       N/A         71  50  47  N1      N/A
#MURDOCK        N/A         73  55  53  S3      30.08F
#RUFUS DOT      N/A         71  N/A N/A NE1     N/A
#SMITHVILLE     N/A         73  53  49  N3      30.07F

$$

ORZ510-262110-
NORTH CENTRAL OREGON

CITY            SKY/WX      TMP DP  RH  WIND    PRES   REMARKS
#ANTELOPE       N/A         67  48  50  E5      29.97F
#CHENOWITH 1W   N/A         69  50  51  E6      N/A
#COW CYN RST AREN/A         66  46  48  NE6     N/A
#DUFUR          N/A         69  52  55  E3      30.09F
#DUFUR 9E       N/A         65  51  60  E2      30.17F
#GRASS VALLEY 1SN/A         68  50  53  E1      30.18F
#KENT DOT       N/A         69  38  32  NE7     N/A
#MAUPIN SCHOOL  N/A         71  53  53  N1      30.18F
#MORO SCHOOL    N/A         70  57  63  CALM    30.15F
#SHANIKO 5WSW   N/A         63  36  36  NE6     N/A
#SHANIKO 4NW    N/A         62  46  56  E6      30.20S
#TYGH VALLEY 2NEN/A         70  54  57  N1      30.11F
#WAPANITIA AIRPON/A         67  51  56  N2      30.14S
#WASCO DOT      N/A         72  46  39  E3      N/A
#WASCO 5NE      N/A         70  52  53  CALM    30.12F
$$

ORZ511-262110-
CENTRAL OREGON

CITY            SKY/WX      TMP DP  RH  WIND    PRES   REMARKS
BEND AIRPORT    SUNNY       68  45  44  VRB3    30.17
MADRAS AIRPORT  SUNNY       68  68  100 N6      30.18
PRINEVILLE AP   SUNNY       68  45  44  VRB7    30.16F
REDMOND AIRPORT SUNNY       69  44  40  N8      30.16F
#ASHWOOD SCHOOL N/A         69  48  47  N7      30.10F
#BEND 1SW       N/A         66  48  52  E1      N/A
#BEND-KIM LN    N/A         65  50  58  NE3     30.05F
#CULVER 8W      N/A         68  46  45  CALM    30.16F
#LAKE BILLY CHINN/A         65  N/A N/A N3      30.18S
#MADRAS 4S      N/A         65  16  15  CALM    30.24
#POWELL BUTTE   N/A         65  47  52  N5      30.10F
#PRINEVILLE     N/A         67  49  52  SW2     30.16F
#PRINEVILLE 3N  N/A         68  50  53  CALM    30.07F
#WARM SPRINGS   N/A         69  51  53  CALM    29.98F

$$


ORZ509-262110-
EAST SLOPES OF OREGON CASCADES

CITY            SKY/WX      TMP DP  RH  WIND    PRES   REMARKS
SISTERS AWOS    N/A         64  48  56  SW2     N/A
#BLUE BOX PASS  N/A         64  N/A N/A NE6     N/A
#CAMP SHERMAN   N/A         73  49  43  CALM    30.12F
#LA PINE DOT    N/A         68  34  28  W2      N/A
#LA PINE 4NW    N/A         64  46  52  CALM    30.16F
#LAVA BUTTE DOT N/A         69  41  36  NW1     N/A
#SISTERS ODOT   N/A         66  46  48  CALM    N/A
#SISTERS 3N     N/A         66  49  54  CALM    30.14F
#SUNRIVER       N/A         67  48  50  E2      30.11F
#TUMALO 3W      N/A         64  48  56  NE1     29.96F
#WANOGA BUTTE D N/A         57  43  59  NE2     N/A

$$

ORZ044-262110-
LOWER COLUMBIA BASIN...OREGON

CITY            SKY/WX      TMP DP  RH  WIND    PRES   REMARKS
HERMISTON       SUNNY       74  50  43  N7      30.14F
#BOARDMAN SCHOOLN/A         71  55  57  N1      30.12F
#BOARDMAN 8SW   N/A         71  55  57  N3      30.13F
#ECHO 8SW       N/A         72  52  49  NW2     30.14F
#I-84 EX 198 DOTN/A         70  51  51  E2      N/A
#IONE SCHOOL    N/A         70  49  47  CALM    30.13F
#UMATILLA       N/A         74  52  46  CALM    30.05F
$$

ORZ507-262110-
NORTHERN FOOTHILLS OF THE BLUES

CITY            SKY/WX      TMP DP  RH  WIND    PRES   REMARKS
PENDLETON AIRPT SUNNY       71  49  46  VRB3    30.15F
#ADAMS 3WNW     N/A         70  50  49  CALM    30.11F
#ATHENA         N/A         69  51  53  CALM    30.14F
#CAYUSE         N/A         68  50  53  CALM    30.11F
#HELIX SCHOOL   N/A         68  50  53  N7      30.12F
#HELIX 3N       N/A         69  50  51  N10     30.13F
#HOLDMAN 5SE    N/A         72  52  49  CALM    30.14F
#HOLDMAN 6E     N/A         70  51  51  CALM    29.92F
#M-F GROVE ELEM N/A         70  49  47  SE2     30.13F
#M-FREEWATER 5SEN/A         70  55  59  CALM    30.14F
#PENDLETON DNTN N/A         74  52  46  CALM    30.13F
#PDT SUNRIDGE   N/A         72  52  49  NW2     30.16F
#PENDLETON 7NW  N/A         71  53  53  CALM    28.31S
#PILOT ROCK     N/A         69  51  53  CALM    30.16F
#TUTUILLA       N/A         71  53  53  CALM    30.20F
#UMAPINE 2E     N/A         72  54  53  NW1     30.12F
#WESTON SCHOOL  N/A         67  48  50  E5      30.08F

$$

ORZ508-262110-
SOUTHERN FOOTHILLS OF THE BLUES

CITY            SKY/WX      TMP DP  RH  WIND    PRES   REMARKS
LEXINGTON       SUNNY       72  48  43  N9      30.18F
#AJAX           N/A         66  45  47  W5      30.30F
#FOSSIL SCHOOL  N/A         68  49  51  N2      30.09F
#HEPPNER EOC    N/A         70  49  47  N3      30.04F
#HEPPNER 4NE    N/A         65  46  50  NE1     30.10F
#LEXINGTON 2SE  N/A         72  50  46  NW7     30.12F
#MIKKALO        N/A         69  47  45  NW5     30.25F
#OLEX 4N        N/A         69  52  55  CALM    30.13F
#RUGGS 5NE      N/A         70  47  44  CALM    30.33S
#RUGGS 2SW      N/A         66  48  52  N6      30.12F

$$

ORZ502-503-262110-
BLUE MOUNTAINS

CITY            SKY/WX      TMP DP  RH  WIND    PRES   REMARKS
MEACHAM         PTCLDY      63  43  48  CALM    30.20F
#BATTLE MTN DOT N/A         60  44  55  N2      N/A
#GRANITE        N/A         62  43  50  S3      30.15S
#GREENHORN 9SW  N/A         66  41  40  W1      26.36F
#HEPPNER 15SE   N/A         66  47  50  N2      30.09F
#LADD CYN SMT   N/A         63  41  44  NW3     N/A
#LADD CREEK ODOTN/A         62  43  50  E6      N/A
#LONG CREEK HS  N/A         65  45  48  CALM    30.19F
#N POWDER DOT   N/A         69  44  40  CALM    N/A
#PIKES PEAK     N/A         60  48  64  CALM    27.99S
#SUMMERVILLE 5NWN/A         68  46  45  CALM    28.12F
#TOLLGATE       N/A         58  40  51  S2      30.07F
#TROY SCHOOL    N/A         78  50  38  SE2     29.95F
#UKIAH          N/A         66  46  48  S1      30.02F
#WESTON 4E      N/A         65  52  63  N1      30.09F
$$

ORZ505-262110-
JOHN DAY BASIN

CITY            SKY/WX      TMP DP  RH  WIND    PRES   REMARKS
JOHN DAY        MOCLDY      69  39  33  CALM    30.19
#JOHN DAY KJDY  N/A         69  N/A N/A E3      29.56R
#ANTELOPE 9ESE  N/A         72  50  46  CALM    N/A
#MITCHELL       N/A         71  54  55  CALM    30.30F
#MITCHELL 8NW   N/A         64  45  50  W1      30.14F
#MONUMENT HS    N/A         76  42  30  NW1     30.08F
#MT. VERNON 5SE N/A         64  41  43  N3      30.14F
#WINLOCK        N/A         70  43  38  NW3     30.11F
$$

ORZ506-262110-
OCHOCO AND JOHN DAY HIGHLANDS

CITY            SKY/WX      TMP DP  RH  WIND    PRES   REMARKS
#HORSE RIDGE DO N/A         65  42  43  NW1     N/A
#PAULINA ODOT   N/A         68  37  32  E2      N/A
#PINE MTN OBS   N/A         56  41  57  CALM    N/A
#PRAIRIE CITY   N/A         67  44  43  CALM    30.32F
#SENECA         N/A         64  N/A N/A SE3     N/A
#SENECA 9NW     N/A         65  39  38  N2      30.07F
$$

ORZ049-262110-
GRANDE RONDE VALLEY

CITY            SKY/WX      TMP DP  RH  WIND    PRES   REMARKS
LA GRANDE       SUNNY       65  47  52  CALM    30.19F
#COVE           N/A         63  51  65  W1      30.20F
#COVE SCHOOL    N/A         68  50  53  CALM    30.18F
#COVE 6NW       N/A         64  47  54  CALM    30.13F
#ELGIN 3N       N/A         70  43  38  CALM    30.56F
#ELGIN 1E       N/A         72  44  37  CALM    N/A
#IMBLER SCHOOL  N/A         64  48  56  CALM    30.13F
#ISLAND CITY 4N N/A         73  59  62  CALM    30.11F
#UNION 1S       N/A         65  48  54  CALM    30.13F
$$

ORZ050-262110-
WALLOWA COUNTY

CITY            SKY/WX      TMP DP  RH  WIND    PRES   REMARKS
JOSEPH AIRPORT  PTCLDY      66  34  30  CALM    30.23S
#ENTERPRISE HS  N/A         66  43  43  CALM    30.00F
#IMNAHA SCHOOL  N/A         73  45  37  NW7     30.13F
#IMNAHA 10S     N/A         68  45  44  NE2     30.15F
#JOSEPH         N/A         63  35  35  CALM    30.39F
#JOSEPH 3N      N/A         63  40  43  W1      30.21F
#JOSEPH 3W      N/A         61  45  56  E2      30.58S
#LOSTINE        N/A         68  48  49  CALM    29.94F
#LOSTINE 3SE    N/A         65  43  45  CALM    30.25F
#MT HOWARD 8000 N/A         44  36  73  CALM    30.33R
#PROMISE 1S     N/A         63  45  52  SW2     30.20F
#WALLOWA LAKE   N/A         63  42  46  VRB1    30.25F
#WALLOWA SCHOOL N/A         70  45  41  CALM    30.13F



$$



USA.gov is the U.S. government's official web portal to all federal, state and local government web resources and services.